| time (UTC) | temp F | wind direction | speed knots | gust knots | rain 1hr in | rain 24hr in | rain mn in | humidity % | barometer mb |
| 20260504050433 | 48 | 0.0 | 0.0 | 0.00 | 0.01 | 0.00 | 97 | 1009.5 | |
| 20260504045433 | 48 | 0.0 | 0.0 | 0.00 | 0.01 | 0.00 | 97 | 1009.9 | |
| 20260504044434 | 48 | 0.0 | 0.0 | 0.00 | 0.01 | 0.00 | 96 | 1009.6 | |
| 20260504043433 | 48 | 0.0 | 0.0 | 0.00 | 0.01 | 0.00 | 96 | 1010.1 | |
| 20260504042434 | 48 | 0.0 | 0.0 | 0.00 | 0.01 | 0.00 | 95 | 1009.8 | |
| 20260504040434 | 48 | 0.0 | 0.0 | 0.00 | 0.01 | 0.00 | 94 | 1010.1 | |
| 20260504035433 | 48 | 0.0 | 0.0 | 0.00 | 0.01 | 0.01 | 94 | 1010.0 | |
| 20260504034513 | 48 | 0.0 | 0.0 | 0.00 | 0.01 | 0.01 | 94 | 1010.1 | |
| 20260504033453 | 48 | 0.0 | 0.0 | 0.00 | 0.01 | 0.01 | 95 | 1010.0 | |
| 20260504032433 | 48 | 0.0 | 0.0 | 0.00 | 0.01 | 0.01 | 95 | 1010.7 | |
| 20260504031433 | 48 | 0.0 | 0.0 | 0.00 | 0.01 | 0.01 | 95 | 1010.6 | |
| 20260504030433 | 48 | 0.0 | 0.0 | 0.00 | 0.01 | 0.01 | 93 | 1010.3 | |
| 20260504025453 | 48 | 0.0 | 0.0 | 0.00 | 0.01 | 0.01 | 92 | 1010.2 | |
| 20260504024433 | 49 | 0.0 | 0.0 | 0.01 | 0.01 | 0.01 | 91 | 1010.5 | |
| 20260504023433 | 49 | 0.0 | 0.0 | 0.01 | 0.01 | 0.01 | 90 | 1010.8 | |
| 20260504022433 | 49 | 0.0 | 0.0 | 0.01 | 0.01 | 0.01 | 88 | 1011.3 | |
| 20260504021433 | 50 | 0.0 | 0.0 | 0.01 | 0.01 | 0.01 | 86 | 1011.2 | |
| 20260504020433 | 50 | 0.0 | 0.0 | 0.01 | 0.01 | 0.01 | 84 | 1011.1 | |
| 20260504015433 | 50 | 0.0 | 0.0 | 0.01 | 0.01 | 0.01 | 82 | 1011.3 | |
| 20260504014433 | 51 | 32 | 0.0 | 6.1 | 0.00 | 0.00 | 0.00 | 80 | 1011.5 |
| 20260504013433 | 52 | 333 | 1.7 | 9.6 | 0.00 | 0.00 | 0.00 | 75 | 1011.4 |
| 20260504012453 | 52 | 32 | 0.0 | 0.9 | 0.00 | 0.00 | 0.00 | 73 | 1011.2 |
| 20260504011433 | 52 | 0.0 | 0.0 | 0.00 | 0.00 | 0.00 | 72 | 1011.0 | |
| 20260504010433 | 52 | 329 | 1.7 | 7.0 | 0.00 | 0.00 | 0.00 | 69 | 1010.9 |
| 20260504005433 | 53 | 0.0 | 0.0 | 0.00 | 0.00 | 0.00 | 70 | 1011.1 | |
| 20260504004433 | 53 | 341 | 0.0 | 4.3 | 0.00 | 0.00 | 0.00 | 67 | 1010.5 |
| 20260504003433 | 54 | 307 | 2.6 | 8.7 | 0.00 | 0.00 | 0.00 | 59 | 1010.3 |
| 20260504002433 | 55 | 0.0 | 0.0 | 0.00 | 0.00 | 0.00 | 56 | 1010.3 | |
| 20260504001453 | 54 | 291 | 0.0 | 4.3 | 0.00 | 0.00 | 0.00 | 54 | 1010.1 |
| 20260504000433 | 54 | 0.0 | 0.0 | 0.00 | 0.00 | 0.00 | 58 | 1009.6 | |
| 20260503235433 | 54 | 0.0 | 0.0 | 0.00 | 0.00 | 0.00 | 56 | 1009.8 | |
| 20260503234433 | 54 | 0.0 | 0.0 | 0.00 | 0.00 | 0.00 | 54 | 1009.8 | |
| 20260503233433 | 54 | 0.0 | 0.0 | 0.00 | 0.00 | 0.00 | 56 | 1010.1 | |
| 20260503232433 | 55 | 267 | 0.0 | 7.0 | 0.00 | 0.00 | 0.00 | 54 | 1010.2 |
| 20260503231453 | 55 | 274 | 2.6 | 7.0 | 0.00 | 0.00 | 0.00 | 52 | 1010.5 |
| 20260503230433 | 55 | 328 | 0.0 | 0.9 | 0.00 | 0.00 | 0.00 | 50 | 1010.3 |
| 20260503225433 | 55 | 258 | 0.0 | 3.5 | 0.00 | 0.00 | 0.00 | 49 | 1010.5 |
| 20260503224513 | 56 | 0.0 | 0.0 | 0.00 | 0.00 | 0.00 | 49 | 1009.9 | |
| 20260503223433 | 56 | 0.0 | 0.0 | 0.00 | 0.00 | 0.00 | 49 | 1010.0 | |
| 20260503222433 | 56 | 0.0 | 0.0 | 0.00 | 0.00 | 0.00 | 48 | 1009.6 | |
| 20260503221433 | 56 | 5 | 0.0 | 1.7 | 0.00 | 0.00 | 0.00 | 49 | 1010.1 |
| 20260503220433 | 56 | 0.0 | 0.0 | 0.00 | 0.00 | 0.00 | 49 | 1010.1 | |
| 20260503215433 | 56 | 38 | 0.0 | 1.7 | 0.00 | 0.00 | 0.00 | 49 | 1010.2 |
| 20260503214433 | 56 | 264 | 0.0 | 6.1 | 0.00 | 0.00 | 0.00 | 49 | 1010.0 |
| 20260503213433 | 56 | 300 | 0.0 | 3.5 | 0.00 | 0.00 | 0.00 | 50 | 1010.3 |
| 20260503212433 | 55 | 0.0 | 0.0 | 0.00 | 0.00 | 0.00 | 50 | 1010.0 | |
| 20260503211433 | 55 | 31 | 0.0 | 4.3 | 0.00 | 0.00 | 0.00 | 51 | 1010.3 |
| 20260503210433 | 55 | 0.0 | 0.0 | 0.00 | 0.00 | 0.00 | 50 | 1010.1 | |
| 20260503205513 | 56 | 0.0 | 0.0 | 0.00 | 0.00 | 0.00 | 49 | 1010.3 | |
| 20260503204433 | 56 | 136 | 0.0 | 3.5 | 0.00 | 0.00 | 0.00 | 48 | 1010.4 |
| 20260503203433 | 56 | 309 | 1.7 | 9.6 | 0.00 | 0.00 | 0.00 | 47 | 1010.6 |
| 20260503202433 | 56 | 330 | 0.0 | 6.1 | 0.00 | 0.00 | 0.00 | 46 | 1010.4 |
| 20260503201433 | 57 | 292 | 0.0 | 3.5 | 0.00 | 0.00 | 0.00 | 45 | 1010.8 |
| 20260503200433 | 55 | 269 | 0.9 | 6.1 | 0.00 | 0.00 | 0.00 | 45 | 1010.8 |
| 20260503195433 | 54 | 319 | 0.9 | 8.7 | 0.00 | 0.00 | 0.00 | 44 | 1011.1 |
| 20260503194433 | 55 | 324 | 0.0 | 4.3 | 0.00 | 0.00 | 0.00 | 47 | 1010.8 |
| 20260503193513 | 54 | 333 | 0.0 | 4.3 | 0.00 | 0.00 | 0.00 | 46 | 1011.2 |
| 20260503192453 | 55 | 324 | 0.0 | 7.0 | 0.00 | 0.00 | 0.00 | 47 | 1011.2 |
| 20260503191433 | 56 | 265 | 1.7 | 9.6 | 0.00 | 0.00 | 0.00 | 45 | 1011.2 |
| 20260503190433 | 55 | 178 | 0.0 | 6.1 | 0.00 | 0.00 | 0.00 | 46 | 1011.1 |
| 20260503185433 | 56 | 355 | 0.0 | 1.7 | 0.00 | 0.00 | 0.00 | 44 | 1011.4 |
| 20260503184441 | 56 | 282 | 0.9 | 8.7 | 0.00 | 0.00 | 0.00 | 42 | 1011.4 |
| 20260503183453 | 56 | 0.0 | 0.0 | 0.00 | 0.00 | 0.00 | 45 | 1011.6 | |
| 20260503182433 | 56 | 42 | 0.0 | 7.0 | 0.00 | 0.00 | 0.00 | 46 | 1011.6 |
| 20260503181433 | 55 | 0.0 | 0.0 | 0.00 | 0.00 | 0.00 | 44 | 1011.9 | |
| 20260503180433 | 55 | 294 | 0.0 | 1.7 | 0.00 | 0.00 | 0.00 | 44 | 1012.1 |
| 20260503175433 | 54 | 312 | 0.0 | 3.5 | 0.00 | 0.00 | 0.00 | 44 | 1012.1 |
| 20260503174433 | 54 | 333 | 0.0 | 1.7 | 0.00 | 0.00 | 0.00 | 43 | 1012.2 |
| 20260503173433 | 54 | 0.0 | 0.0 | 0.00 | 0.00 | 0.00 | 43 | 1012.3 | |
| 20260503172433 | 53 | 337 | 0.0 | 3.5 | 0.00 | 0.00 | 0.00 | 42 | 1012.5 |
| 20260503171433 | 54 | 332 | 0.0 | 3.5 | 0.00 | 0.00 | 0.00 | 43 | 1012.4 |
| 20260503170433 | 53 | 331 | 0.0 | 0.9 | 0.00 | 0.00 | 0.00 | 42 | 1012.7 |
| 20260503150433 | 50 | 335 | 0.0 | 3.5 | 0.00 | 0.00 | 0.00 | 46 | 1014.1 |
| 20260503130434 | 45 | 0.0 | 0.0 | 0.00 | 0.00 | 0.00 | 72 | 1014.6 | |
| 20260503110433 | 39 | 0.0 | 0.0 | 0.00 | 0.00 | 0.00 | 89 | 1014.1 | |
| 20260503090433 | 39 | 0.0 | 0.0 | 0.00 | 0.00 | 0.00 | 82 | 1014.0 | |
| 20260503081433 | 40 | 0.0 | 0.0 | 0.00 | 0.00 | 0.00 | 88 | 1014.1 | |
| 20260503080433 | 40 | 0.0 | 0.0 | 0.00 | 0.00 | 0.00 | 89 | 1013.9 | |
| 20260503072433 | 40 | 0.0 | 0.0 | 0.00 | 0.00 | 0.00 | 89 | 1013.9 |